weather.gov     
National Weather Service

Regional Weather Roundup
NWS Homepage
This page is being discontinued on March 12, 2014.
The same data is available at this site. Please update your bookmarks.
Thank you, and we apologize for the inconvenience.
Please send an email to SR-SRH.Webmaster@noaa.gov with any concerns.


Current Version
Previous Version:    01  02  03  04  05  06  07  08  09  10  11  12  13  14  15  16  17  18  19  20  21  22  23  24  25  26  
[Printable]
134
ASUS45 KREV 182110
RWRNV
NEVADA REGIONAL WEATHER ROUNDUP
NATIONAL WEATHER SERVICE RENO NV
100 PM PST THU DEC 18 2014

NOTE: "FAIR" INDICATES FEW OR NO CLOUDS BELOW 12,000 FEET WITH NO
SIGNIFICANT WEATHER AND/OR OBSTRUCTIONS TO VISIBILITY.

NVZ001-003-004-182200-
WESTERN NEVADA

CITY           SKY/WX    TMP DP  RH WIND       PRES   REMARKS
RENO           PTSUNNY   47  29  49 CALM      30.12F
CARSON CITY    FAIR      48  27  43 CALM      30.11F
MINDEN         FAIR      46  25  42 SW5       30.12
SLIDE MTN        N/A     28  27  93 S2          N/A
PYRAMID LAKE     N/A     45 N/A N/A E6          N/A
FALLON         CLOUDY    47  27  45 CALM      30.12F
LOVELOCK       PTSUNNY   46  31  55 S6        30.12F
HAWTHORNE      SUNNY     46  28  49 CALM      30.14F
$$

NVZ002-CAZ072-073-182200-
NORTHERN AND CENTRAL SIERRA

CITY           SKY/WX    TMP DP  RH WIND       PRES   REMARKS
S. LAKE TAHOE  FAIR      44  24  45 S9        30.11F
TRUCKEE        MOSUNNY   41  30  65 NW6       30.13S
SQUAW VLY 8000   N/A     30  32 100 VRB15       N/A
SUSANVILLE     MOSUNNY   45  34  65 E6        30.12
BLUE CANYON    PTSUNNY   39  32  76 SE6       30.15F
MAMMOTH LAKES  FAIR      36  21  55 SE5       30.14S
BRIDGEPORT     FAIR      44  21  40 SW14      30.07F
$$

NVZ030-031-036-182200-
NORTHERN NEVADA

CITY           SKY/WX    TMP DP  RH WIND       PRES   REMARKS
ELKO           CLOUDY    35  30  82 SW5       30.13S
WINNEMUCCA     CLOUDY    44  30  57 S5        30.11F
WENDOVER       PTSUNNY   37  27  65 SE3       30.14S
$$

NVZ035-037-182200-
CENTRAL NEVADA

CITY           SKY/WX    TMP DP  RH WIND       PRES   REMARKS
ELY            FAIR      37  24  59 NW5       30.11F
EUREKA           N/A     37  27  67 SW6       30.12S
$$

NVZ013-014-182200-
SOUTH CENTRAL NEVADA

CITY           SKY/WX    TMP DP  RH WIND       PRES   REMARKS
TONOPAH        CLOUDY    41  28  60 SW6       30.14F
$$

NVZ017-020-022-182200-
SOUTHERN NEVADA

CITY           SKY/WX    TMP DP  RH WIND       PRES   REMARKS
LAS VEGAS      PTSUNNY   55  39  54 CALM      30.11F
N. LAS VEGAS   PTSUNNY   53  38  56 CALM      30.14F
NELLIS AFB     PTSUNNY   54  41  62 E2        30.15F
HENDERSON      FAIR      54  40  59 N5        30.16F
MERCURY        CLOUDY    49  38  65 SW8       30.13F
$$




U.S. Dept. of Commerce
NOAA National Weather Service
1325 East West Highway
Silver Spring, MD 20910
E-mail: w-nws.webmaster@noaa.gov
Page last modified: May 16, 2007
NATIONAL WEATHER SERVICE: for Safety, for Work, for Fun - FOR LIFE